Gwinn, MI

2:35 PM EDT on April 29, 2017 (GMT -0400)
Sawyer International

Weather History for KSAW - January, 2013

Change the Weather History Date:

Friday, January 25, 2013

  Actual Average (KESC) Record (KESC)
Temperature  
Mean Temperature 10 °F -  
Max Temperature 15 °F 25 °F 41 °F (2002)
Min Temperature 6 °F 8 °F -14 °F (1972)
Degree Days  
Heating Degree Days 54    
Moisture  
Dew Point 6 °F    
Average Humidity 84    
Maximum Humidity 100    
Minimum Humidity 70    
Precipitation  
Precipitation 0.00 in - - ()
Sea Level Pressure  
Sea Level Pressure 30.04 in    
Wind  
Wind Speed 8 mph (SSW)    
Max Wind Speed 12 mph    
Max Gust Speed -    
Visibility 5 miles    
Events Snow    
Averages and records for this station are not official NWS values.
T = Trace of Precipitation, MM = Missing Value Source: NWS Daily Summary

Daily Weather History Graph

Daily Weather History Graph

Search for Another Location

Airport or City:

Trip Planner

Search our weather history database for the weather conditions in past years. The results will help you decide how hot, cold, wet, or windy it might be!

Date:

Astronomy

Jan. 25, 2013 Rise Set
Actual Time 8:20 AM EST 5:44 PM EST
Civil Twilight 7:47 AM EST 6:16 PM EST
Nautical Twilight 7:11 AM EST 6:53 PM EST
Astronomical Twilight 6:35 AM EST 7:29 PM EST
Moon 4:41 PM EST (1/25) 7:00 AM EST (1/25)
Length of Visible Light 10h 29m
Length of Day
9h 23m
Waxing Gibbous, 98% of the Moon is Illuminated
Jan 25
Waxing Gibbous
Jan 26
Full
Feb 3
Last Quarter
Feb 10
New
Feb 17
First Quarter

Hourly Weather History & Observations

Time (EST) Temp. Windchill Dew Point Humidity Pressure Visibility Wind Dir Wind Speed Gust Speed Precip Events Conditions
12:17 AM 7.7 °F -5.8 °F -0.4 °F 70% 30.28 in 10.0 mi South 9.2 mph - N/A   Overcast
12:37 AM 7.7 °F -5.8 °F -0.4 °F 70% 30.28 in 10.0 mi SSW 9.2 mph - N/A   Overcast
12:57 AM 7.7 °F -5.8 °F 0.1 °F 71% 30.27 in 7.0 mi SSW 9.2 mph - N/A Snow Light Snow
1:17 AM 7.5 °F -6.0 °F 0.7 °F 74% 30.25 in 4.0 mi SSW 9.2 mph - N/A Snow Light Snow
1:36 AM 6.8 °F -7.8 °F 3.2 °F 85% 30.24 in 1.2 mi SSW 10.4 mph - N/A Snow Light Snow
1:57 AM 7.2 °F -6.4 °F 3.2 °F 84% 30.22 in 1.8 mi SSW 9.2 mph - N/A Snow Light Snow
2:17 AM 7.2 °F -6.4 °F 3.2 °F 84% 30.21 in 2.5 mi SSW 9.2 mph - N/A Snow Light Snow
2:37 AM 7.3 °F -4.1 °F 3.6 °F 85% 30.19 in 2.0 mi SSW 6.9 mph - N/A Snow Light Snow
2:57 AM 7.3 °F -6.2 °F 3.7 °F 85% 30.18 in 4.0 mi South 9.2 mph - N/A Snow Light Snow
3:16 AM 7.5 °F -5.0 °F 3.9 °F 85% 30.17 in 4.0 mi South 8.1 mph - N/A Snow Light Snow
3:37 AM 7.5 °F -6.0 °F 3.7 °F 85% 30.16 in 4.0 mi SSW 9.2 mph - N/A Snow Light Snow
3:57 AM 7.5 °F -6.0 °F 3.7 °F 85% 30.15 in 4.0 mi SSW 9.2 mph - N/A Snow Light Snow
4:16 AM 7.7 °F -6.6 °F 3.9 °F 85% 30.14 in 3.0 mi South 10.4 mph - N/A Snow Light Snow
4:37 AM 7.7 °F -4.8 °F 4.1 °F 85% 30.12 in 2.0 mi SSW 8.1 mph - N/A Snow Light Snow
4:57 AM 7.7 °F -4.8 °F 4.3 °F 86% 30.11 in 4.0 mi SSW 8.1 mph - N/A Snow Light Snow
5:16 AM 7.7 °F -3.7 °F 4.1 °F 85% 30.09 in 10.0 mi SSW 6.9 mph - N/A   Overcast
5:37 AM 7.7 °F -4.8 °F 4.3 °F 86% 30.08 in 7.0 mi SSW 8.1 mph - N/A Snow Light Snow
5:57 AM 7.7 °F -5.8 °F 4.5 °F 87% 30.06 in 4.0 mi South 9.2 mph - N/A Snow Light Snow
6:50 AM 8.6 °F -6.3 °F 5.0 °F 85% 30.02 in 3.0 mi South 11.5 mph - N/A Snow Light Snow
7:50 AM 8.6 °F -4.7 °F 6.8 °F 92% 29.99 in 3.0 mi South 9.2 mph - N/A Snow Light Snow
8:50 AM 10.4 °F -4.1 °F 10.4 °F 100% 29.97 in 1.8 mi South 11.5 mph - N/A Snow Light Snow
9:20 AM 10.4 °F -2.4 °F 6.8 °F 85% 29.96 in 3.0 mi South 9.2 mph - N/A Snow Light Snow
9:48 AM 10.4 °F -1.5 °F 6.8 °F 85% 29.94 in 1.5 mi South 8.1 mph - N/A Snow Light Snow
10:01 AM 10.4 °F -0.4 °F 6.8 °F 85% 29.94 in 1.2 mi South 6.9 mph - N/A Snow Light Snow
10:55 AM 12.2 °F 0.7 °F - N/A% 29.93 in 1.2 mi South 8.1 mph - N/A Snow Light Snow
11:50 AM 14.0 °F 2.9 °F 10.4 °F 86% 29.90 in 3.0 mi South 8.1 mph - N/A Snow Light Snow
12:50 PM 15.8 °F 7.2 °F 10.4 °F 79% 29.87 in 1.5 mi South 5.8 mph - N/A Snow Light Snow
1:50 PM 15.8 °F 7.2 °F 10.4 °F 79% 29.85 in 2.0 mi SW 5.8 mph - N/A Snow Light Snow
2:46 PM 15.8 °F - 8.6 °F 73% 29.84 in 7.0 mi Calm Calm - N/A   Mostly Cloudy
3:50 PM 15.8 °F - 10.4 °F 79% 29.86 in 10.0 mi Calm Calm - N/A   Overcast
4:50 PM 15.8 °F - 10.4 °F 79% 29.89 in 2.0 mi Calm Calm - N/A Snow Light Snow
5:55 PM 14.0 °F - 12.2 °F 93% 29.92 in 7.0 mi Calm Calm - N/A   Overcast
6:50 PM 12.2 °F - 10.4 °F 92% 29.92 in 10.0 mi Calm Calm - N/A   Clear
7:55 PM 6.8 °F -0.1 °F 5.0 °F 92% 29.94 in 10.0 mi West 3.5 mph - N/A   Mostly Cloudy
8:50 PM 8.6 °F - 6.8 °F 92% 29.94 in 10.0 mi Calm Calm - N/A   Overcast
9:50 PM 12.2 °F - 8.6 °F 85% 29.96 in 10.0 mi Calm Calm - N/A   Overcast
10:17 PM 13.1 °F 5.4 °F 9.5 °F 86% 29.96 in 5.0 mi West 4.6 mph - N/A Snow Light Snow
10:37 PM 13.5 °F 3.3 °F 10.0 °F 86% 29.96 in 7.0 mi WNW 6.9 mph - N/A Snow Light Snow
10:56 PM 13.8 °F 3.7 °F 10.4 °F 86% 29.96 in 7.0 mi WNW 6.9 mph - N/A Snow Light Snow
11:17 PM 14.0 °F 3.9 °F 10.4 °F 86% 29.96 in 10.0 mi WNW 6.9 mph - N/A   Overcast
11:37 PM 14.9 °F 4.0 °F 11.1 °F 85% 29.97 in 10.0 mi WNW 8.1 mph - N/A   Overcast
11:56 PM 15.4 °F 4.6 °F 11.3 °F 84% 29.97 in 10.0 mi WNW 8.1 mph - N/A   Overcast